Kirill Balanovich

Recruteur - Ostrovets
3 Déc 2028
Dimanche
Processus

Personnalité

Adaptabilité (14) Ambition (3) Controverse (13) Loyauté (19) Pression (11) Professionnalisme (11) Sportivité (18) Tempérament (13)

Profil

Style d'entraînement Démocratique
Diplôme Continental A
Détermination 2
Gestion des joueurs 1
Motivation 3
Discipline 3
Satisfaction professionnelle
100%
Fatigue
0%
Rôle Recruteur
Salaire 7.1K p/s
Contrat 14.03.2030

Performance

Comportement Bon
Efficacité de l'entraînement
16%
Développement des joueurs
10%
Prévention des blessures
10%
Mise en place tactique
10%

Événements récents

A participé à une réunion de recrutement maintenant
A évalué un joueur maintenant
A évalué un joueur maintenant
A participé à une réunion de recrutement 7j
A évalué un joueur 7j
A évalué un joueur 7j
A évalué un joueur 7j
A évalué un joueur 14j

Suivi en cours

149
Joueur Club Statut Capacité Confiance Observé Dernière observation Dernier vote
Ilja Gruznov Khimik Actif 92 / 94 40% 6 02.12.2028 -
Emiliano García Uruguay Montevideo Actif 79 / 108 40% 3 02.12.2028 -
Dylan Cabral Arsenal Actif 88 / 124 40% 7 01.12.2028 -
Makhach Abdulkhamidov Alania Actif 97 / 90 40% 1 01.12.2028 -
Nahuel Gómez Oriental Actif 104 / 79 40% 2 30.11.2028 -
Luca Franco Arsenal Actif 112 / 92 40% 2 30.11.2028 -
Tomás Benardoni Los Andes Actif 79 / 100 40% 3 28.11.2028 -
Dmitry Prokhorov Rubin Actif 79 / 74 40% 1 24.11.2028 -
Diego González San Luis Actif 120 / 111 40% 1 24.11.2028 -
Omar Bautista Gerez Central Córdoba SdE Actif 104 / 106 40% 1 22.11.2028 -
Amir Alizade Sibir Actif 79 / 90 40% 1 22.11.2028 -
Juan Peinipil Madryn Actif 96 / 89 40% 4 21.11.2028 -
Germán Cervera Alvarado Actif 94 / 87 40% 4 21.11.2028 -
Asanele Shibe Molodechno Actif 81 / 88 40% 2 18.11.2028 -
Diego Robles Union Espanola Actif 68 / 78 40% 3 17.11.2028 -
Jean Galindo Victoriia Sumy Actif 85 / 107 40% 1 17.11.2028 -
Arseny Vainer Nosta Actif 94 / 81 40% 6 16.11.2028 -
Owen Falconis Cerrito Actif 110 / 102 40% 3 14.11.2028 -
Leenhan Romero Iquique Actif 84 / 80 40% 1 14.11.2028 -
Alejo Mainero Estudiantes Actif 117 / 105 40% 2 12.11.2028 -
Oleg Trofimov Khimik Actif 78 / 86 40% 2 12.11.2028 -
Tiago Taobas Central Norte Actif 103 / 98 40% 2 10.11.2028 -
Ivan Tikhonov Naftan Actif 85 / 89 40% 1 10.11.2028 -
Elías Ayala Madryn Actif 118 / 99 40% 3 08.11.2028 -
Ivan Selemenev Mashuk Actif 87 / 74 40% 7 06.11.2028 -
Nikita Golub Belshina Actif 76 / 79 40% 1 06.11.2028 -
Nahuel Marzochi Colon Actif 103 / 80 40% 2 05.11.2028 -
Lorenzo Barrera Agropecuario Argentino Actif 106 / 107 40% 3 04.11.2028 -
Jorge Sanguina Colón Actif 121 / 122 40% 3 04.11.2028 -
Nikita Kireev Dinamo Vologda Actif 74 / 73 40% 3 02.11.2028 -
Camilo Machado Madryn Actif 118 / 113 40% 1 02.11.2028 -
Agustín Lavezzi Quilmes Actif 123 / 101 40% 2 31.10.2028 -
Elías Ovelar General Diaz Actif 103 / 81 40% 1 31.10.2028 -
David Maguicha Atlanta Actif 98 / 83 40% 3 29.10.2028 -
Soslan Lysenko Spartak Nalchik Actif 82 / 87 40% 1 28.10.2028 -
Alexandr Butko Isloch Actif 82 / 94 40% 1 28.10.2028 -
Ruslan Radyukevich Niva Actif 76 / 68 40% 2 27.10.2028 -
Joaquín Avilés Cerrito Actif 80 / 97 40% 1 27.10.2028 -
Mateo Alcoba Albion Actif 75 / 83 40% 3 24.10.2028 -
Ivan Matyushenko Alania Actif 85 / 79 40% 3 23.10.2028 -
Facundo Martínez Montevideo City Torque Actif 78 / 86 40% 1 21.10.2028 -
Aziz Gaziev Dinamo St Petersburg Actif 76 / 79 40% 4 20.10.2028 -
Martín Álvarez Tristán Suárez Actif 103 / 115 40% 2 20.10.2028 -
Facundo Castro Nueva Chicago Actif 129 / 119 40% 3 19.10.2028 -
Gonzalo Berterame Morón Actif 101 / 106 40% 1 19.10.2028 -
Gonzalo Flores Almirante Brown Actif 105 / 128 40% 3 13.10.2028 -
Diego Guallama All Boys Actif 124 / 126 40% 2 10.10.2028 -
Enzo Abondetto Central Norte Actif 88 / 95 40% 2 10.10.2028 -
Daniil Kondrakov KDV Tomsk Actif 94 / 93 40% 1 04.10.2028 -
Vladislav Bragin SKA Khabarovsk Actif 93 / 99 40% 4 02.10.2028 -
Dmitry Kamenschikov Chernomorets Actif 94 / 106 40% 2 02.10.2028 -
Jacobo Alcalde SKA Khabarovsk Actif 102 / 89 40% 1 01.10.2028 -
Alan Bonansea Colón Actif 97 / 122 40% 1 30.09.2028 -
Lautaro Cano Central Córdoba SdE Actif 83 / 110 40% 1 26.09.2028 -
Jerónimo Porto Lapegüe San Telmo Actif 125 / 109 40% 2 25.09.2028 -
Mauro Schönfeld Morón Actif 125 / 107 40% 3 23.09.2028 -
Mauricio Tévez Chaco For Ever Actif 110 / 118 40% 1 20.09.2028 -
Evgeny Voronin Volga Actif 93 / 99 40% 1 19.09.2028 -
Octavio Bianchi Gimnasia y Esgrima Actif 96 / 113 40% 4 18.09.2028 -
Franco Pinoni Alvarado Actif 105 / 91 40% 1 18.09.2028 -
Wladimir Cid San Marcos de Arica Actif 90 / 83 40% 1 17.09.2028 -
Manuel Severich Gimnasia y Esgrima Actif 93 / 115 40% 2 15.09.2028 -
Tobias Canale Almagro Actif 78 / 87 40% 1 15.09.2028 -
Facundo Blasco San Telmo Actif 72 / 85 40% 2 10.09.2028 -
Diego Méndez Tacuarembo Actif 99 / 77 40% 2 08.09.2028 -
Sule John Belshina Actif 66 / 78 40% 1 06.09.2028 -
Manuel Núñez Tacuarembo Actif 92 / 98 40% 1 03.09.2028 -
Agustín Zabaleta Chaco For Ever Actif 74 / 98 40% 1 02.09.2028 -
Axel Pedrozo Almagro Actif 89 / 82 40% 1 02.09.2028 -
Ilja Grischenko Kaluga Actif 86 / 82 40% 1 31.08.2028 -
Juan Mendoza Güemes Actif 100 / 117 40% 2 29.08.2028 -
Matías Samaniego Talleres Actif 108 / 104 40% 1 29.08.2028 -
Agustín Dávila Cerro Largo Actif 93 / 90 40% 1 28.08.2028 -
Christian Silva Santiago Wanderers Actif 89 / 78 40% 1 28.08.2028 -
Ramiro Jara Racing Actif 83 / 75 40% 2 24.08.2028 -
Ilya Tishurov Osipovichi Actif 93 / 83 40% 1 23.08.2028 -
Ken Kait Sillamae Kalev Actif 79 / 68 40% 1 23.08.2028 -
Carlos Ramírez Zulia Actif 77 / 108 40% 1 21.08.2028 -
Gary Silva Progreso Actif 95 / 85 40% 1 17.08.2028 -
Lautaro Díaz San Martín Actif 75 / 99 40% 1 17.08.2028 -
Rodrigo Monserrat Colegiales Actif 110 / 104 40% 1 14.08.2028 -
Lucas Rodríguez Uruguay Montevideo Actif 94 / 96 40% 1 11.08.2028 -
Juan Cruz Franzoni Gimnasia y Esgrima Actif 101 / 99 40% 1 10.08.2028 -
James Moreno Cortulua Actif 72 / 105 40% 1 09.08.2028 -
Nicolás Heiz Maipú Actif 117 / 115 40% 1 09.08.2028 -
Bruno Scorza La Luz Actif 88 / 86 40% 1 07.08.2028 -
Leandro Ruiz Volna Pinsk Actif 82 / 73 40% 1 31.07.2028 -
Nurkhan Gasymov Dinamo Minsk Actif 50 / 57 55% 1 17.07.2028 -
Jacobo Escobar Vorskla Actif 91 / 105 40% 1 12.07.2028 -
Maxim Sergeev Spartak Tambov Actif 78 / 73 40% 6 11.07.2028 -
Artem Ntumba Rubin Yalta Actif 72 / 84 40% 7 03.07.2028 -
Tobías Dieni Ryazan Actif 89 / 83 40% 7 02.07.2028 -
Sergey Gribov Dinamo Bryansk Actif 88 / 101 40% 1 01.07.2028 -
Alexandr Goryachkin Strogino Actif 86 / 77 40% 6 30.06.2028 -
Matvey Pershin Leningradets Actif 88 / 85 40% 1 30.06.2028 -
Bakhammad Khadjimusala Orenburg Actif 79 / 69 40% 1 29.06.2028 -
Nicolae Sula Kvant Actif 68 / 71 40% 1 26.06.2028 -
Anton Betyuzhnov Dinamo Vologda Actif 82 / 78 40% 4 22.06.2028 -
Tamaz Topuria Mashuk Actif 81 / 77 40% 1 20.06.2028 -
Gevork Sarkisyan Saturn Actif 79 / 88 40% 8 18.06.2028 -
Zakhar Korenkov Orsha Actif 52 / 57 55% 1 14.06.2028 -
Magomed Ibragimov Legion Actif 65 / 72 40% 3 13.06.2028 -
Nikita Rozhkov Saturn Actif 71 / 87 40% 2 12.06.2028 -
Andrés Dieppa Bogota Refusé 113 / 83 40% 1 12.06.2028 -
Valery Arkhipenko Torpedo Vladimir Actif 66 / 70 40% 1 11.06.2028 -
Bekkhan Aliev Sevastopol Actif 85 / 79 40% 2 10.06.2028 -
Ilja Glebov Dinamo Stavropol Actif 65 / 63 40% 4 09.06.2028 -
Ville Nilsson Metallurg Actif 78 / 89 40% 5 08.06.2028 -
Vadim Tsygankov Ryazan Actif 75 / 82 40% 1 08.06.2028 -
Baba N'Diaye Chaika Actif 88 / 92 40% 2 04.06.2028 -
Konstantin Simakov Torpedo Vladimir Actif 77 / 81 40% 3 01.06.2028 -
Marat Tlekhugov Yenisey Actif 95 / 100 40% 3 31.05.2028 -
Rashid Salimov Pobeda Actif 82 / 73 40% 2 27.05.2028 -
Wojciech Szafranek Zenit Penza Actif 78 / 73 40% 2 27.05.2028 -
Nikita Tereschuk Leningradets Actif 79 / 81 40% 1 23.05.2028 -
Danylo Polonskyi UCSA Actif 83 / 75 40% 1 21.05.2028 -
Daniil Sukhoruchko Metalist Actif 95 / 108 40% 2 20.05.2028 -
Daniil Arsentjev Orel Actif 87 / 88 40% 2 19.05.2028 -
Alexandr Olenev Nart Actif 78 / 82 40% 8 16.05.2028 -
Ilja Antsiferov Angusht Actif 72 / 60 40% 2 10.05.2028 -
Matvey Ivakhnov Mashuk Actif 71 / 73 40% 1 05.05.2028 -
Wilman Moreira Irkutsk Actif 73 / 65 40% 3 03.05.2028 -
Sergey Gaiduk Salyut Actif 92 / 72 40% 5 01.05.2028 -
Yaroslav Dol Nart Actif 83 / 70 40% 3 01.05.2028 -
Nikita Nikiforov Khimik Actif 90 / 81 40% 2 29.04.2028 -
Denis Rubanov Dinamo Stavropol Actif 79 / 91 40% 5 27.04.2028 -
Nikita Khlusov Kuban Holding Actif 65 / 58 40% 1 16.04.2028 -
Zakhar Tarasenko Veles Actif 78 / 92 40% 2 13.04.2028 -
Alexandr Shlenkin Dinamo Bryansk Actif 81 / 75 40% 1 13.04.2028 -
Bilal Bilalov Dinamo Kirov Actif 90 / 85 40% 2 11.04.2028 -
Ilja Stefanovich Leningradets Actif 95 / 101 40% 3 10.04.2028 -
Anzor Khutov Mashuk Actif 91 / 87 40% 1 08.04.2028 -
Danila Yezhkov Dinamo Vologda Actif 79 / 90 40% 2 31.03.2028 -
Dmitry Pereverzev Nart Actif 66 / 71 40% 2 27.03.2028 -
Artem Kotik Neftekhimik Actif 102 / 84 40% 1 24.03.2028 -
Artur Kozyrev Volna Actif 78 / 98 40% 1 21.03.2028 -
Gadji Budunov Angusht Actif 78 / 73 40% 2 20.03.2028 -
Kirill Mogel Dinamo Barnaul Actif 77 / 65 40% 1 15.03.2028 -
Vladimir Uljanovskiy Chelyabinsk Actif 74 / 84 40% 2 12.03.2028 -
Yegor Ponomarev Tver Actif 76 / 68 40% 2 07.03.2028 -
Ilja Rubtsov Chaika Actif 100 / 105 40% 1 07.03.2028 -
Maxim Dmitriev Tyumen Actif 91 / 78 40% 1 16.02.2028 -
Nikolay Maximov Krylya Sovetov Actif 69 / 68 40% 1 03.02.2028 -
Alexandr Komissarov Torpedo Vladimir Actif 83 / 76 40% 1 22.01.2028 -
Josué Doké Narva Trans Actif 81 / 92 40% 1 19.01.2028 -
Maksim Chalavach Lokomotiv Gomel Actif 80 / 83 40% 1 12.01.2028 -
Sergey Guzyuk Strogino Actif 77 / 82 40% 1 11.01.2028 -
Denis Terentjev Zenit Actif 111 / 96 40% 1 02.08.2026 -
Daniel Prieto Alianza Atletico Actif 131 / 102 40% 1 01.08.2026 -